Location: Brasstown Bald
(34.8693°N, 83.8103°W)
Time: 13:28:35
(UTC-04:00)

Amateur Radio Satellites - All Passes

Search period start: 25 May 2015 12:58
Search period end: 26 May 2015 12:58
Location: Brasstown Bald, 34.8693°N, 83.8103°W

Satellite Date Start Highest point End Downlink Frequencies (MHz)
Time Altitude Azimuth
HUMSAT D 25 May 13:02:43 13:05:47 20° 290° (WNW) 13:08:42 437.325/437.525
DX 1 25 May 13:04:43 13:08:00 20° 291° (WNW) 13:11:10 434.975-435.025
ESTCUBE 1 25 May 13:05:53 13:10:25 71° 283° (WNW) 13:14:55 437.505/2401.250
VELOX 1 25 May 13:10:50 13:14:57 35° 288° (WNW) 13:18:59 145.980
POPSAT HIP 1 25 May 13:11:43 13:13:58 14° 269° (W) 13:16:01 437.405
CUBEBUG 1 25 May 13:14:12 13:18:38 65° 284° (WNW) 13:23:01 437.445
DUCHIFAT 1 25 May 13:15:33 13:17:31 12° 269° (W) 13:19:14 145.980
Oscar 19 25 May 13:18:32 13:22:17 21° 68° (ENE) 13:26:12 437.125/150
Cosmos 2504 25 May 13:26:46 13:30:37 13° 296° (WNW) 13:33:43 435.465 / 435.565
GONETS M04 25 May 13:27:54 13:35:33 36° 87° (E) 13:43:24
SRMSAT 25 May 13:31:54 13:34:41 14° 169° (S) 13:37:33 437.500
AISAT 25 May 13:42:54 13:45:45 16° 292° (WNW) 13:48:24 437.250
DANDE 25 May 13:46:55 13:53:07 45° 90° (E) 14:00:45 436.750
Gurwin Techsat 1B 25 May 13:57:09 13:59:24 13° 65° (ENE) 14:01:56 435.225
SO-50 25 May 14:00:07 14:05:04 73° 243° (WSW) 14:09:55 436.795
SPROUT 25 May 14:00:15 14:04:35 73° 284° (WNW) 14:08:52 437.525
JUGNU 25 May 14:05:36 14:09:30 18° 181° (S) 14:13:22 437.505
RS-15 25 May 14:17:24 14:22:17 13° 347° (NNW) 14:26:57 29.354- 29.394
CUSAT 1 25 May 14:30:00 14:36:53 69° 282° (WNW) 14:45:04 437.405
ITUPSAT 1 25 May 14:30:55 14:34:39 23° 95° (E) 14:38:31 437.325
TISAT 1 25 May 14:30:58 14:35:01 43° 286° (WNW) 14:39:02 437.305
BEESAT 25 May 14:39:30 14:43:37 29° 96° (E) 14:47:49 436.000
SWISSCUBE 25 May 14:47:27 14:51:55 40° 98° (E) 14:56:25 437.505
Oscar 19 25 May 14:56:30 15:01:24 40° 262° (W) 15:06:17 437.125/150
ITAMSAT 1 25 May 15:06:15 15:11:22 70° 75° (ENE) 15:16:32 435.822/435.867
KKS-1 25 May 15:15:23 15:15:34 10° 89° (E) 15:16:06 437.445
SRMSAT 25 May 15:19:15 15:23:09 18° 178° (S) 15:27:04 437.500
AO-7 25 May 15:20:39 15:26:47 25° 60° (ENE) 15:33:14 29.400- 29.500
GONETS M04 25 May 15:23:55 15:32:15 44° 284° (WNW) 15:40:33
JAS-2 25 May 15:30:07 15:35:06 23° 69° (ENE) 15:39:54 435.910
DANDE 25 May 15:30:28 15:36:37 33° 291° (WNW) 15:43:42 436.750
Gurwin Techsat 1B 25 May 15:33:34 15:38:51 70° 258° (WSW) 15:44:10 435.225
JUGNU 25 May 15:54:55 15:57:48 14° 191° (S) 16:00:36 437.505
Cosmos 2499 25 May 16:01:47 16:10:00 68° 94° (E) 16:17:39 435.465 / 435.565
ITUPSAT 1 25 May 16:08:23 16:12:35 30° 289° (WNW) 16:16:42 437.325
BEESAT 25 May 16:17:30 16:21:22 24° 290° (WNW) 16:25:06 436.000
CUSAT 1 25 May 16:18:30 16:21:31 12° 303° (WNW) 16:24:01 437.405
STARS 25 May 16:20:31 16:24:38 37° 98° (E) 16:28:44 437.465
SWISSCUBE 25 May 16:26:11 16:29:30 19° 292° (WNW) 16:32:41 437.505
RS-15 25 May 16:34:51 16:41:31 17° 24° (NNE) 16:48:48 29.354- 29.394
HORYU 2 25 May 16:35:12 16:39:42 88° 77° (ENE) 16:44:12 437.375
KKS-1 25 May 16:48:15 16:52:41 59° 285° (WNW) 16:57:03 437.445
ITAMSAT 1 25 May 16:49:48 16:51:28 11° 271° (W) 16:52:45 435.822/435.867
O/OREOS (USA 219) 25 May 17:02:32 17:07:02 64° 292° (WNW) 17:11:30 437.305
SRMSAT 25 May 17:08:12 17:11:38 16° 188° (S) 17:15:01 437.500
AO-7 25 May 17:10:45 17:19:00 68° 256° (WSW) 17:27:17 29.400- 29.500
JAS-2 25 May 17:13:11 17:20:00 52° 260° (W) 17:26:01 435.910
Cosmos 2499 25 May 17:57:50 18:03:47 21° 291° (WNW) 18:09:05 435.465 / 435.565
STARS 25 May 17:57:55 18:00:49 17° 292° (WNW) 18:03:31 437.465
MOZHAYETS 4 25 May 18:05:05 18:09:38 69° 101° (E) 18:14:11
BEESAT 3 25 May 18:20:34 18:23:46 23° 112° (ESE) 18:27:05 437.485
CUTE-I 25 May 18:46:11 18:51:16 50° 73° (ENE) 18:56:25 437.470
RS-15 25 May 18:46:19 18:57:38 54° 53° (NE) 19:09:28 29.354- 29.394
Cubesat XI-IV 25 May 19:06:03 19:11:21 80° 76° (ENE) 19:16:42 437.490
BEESAT 2 25 May 19:06:11 19:10:14 66° 118° (ESE) 19:14:21 435.950
YUBILEINY 25 May 19:13:09 19:21:16 43° 76° (ENE) 19:29:28 435.215
Cosmos 2491 25 May 19:13:44 19:20:01 24° 84° (E) 19:26:44 435.465 / 435.565
HO-68 25 May 19:34:34 19:35:58 11° 57° (ENE) 19:37:53 435.675
CUBESAT XI-V 25 May 19:39:17 19:43:54 54° 100° (E) 19:48:30 437.345
BRITE-PL 25 May 19:52:20 19:55:40 18° 67° (ENE) 19:59:20 437.365/2234.400
BEESAT 3 25 May 19:58:12 20:01:40 25° 307° (NW) 20:05:06 437.485
GOMX 1 25 May 20:03:26 20:06:13 15° 66° (ENE) 20:09:17 467.674
PRISM 25 May 20:06:44 20:10:42 44° 99° (E) 20:14:42 437.425
STRAND 1 25 May 20:20:05 20:25:08 55° 101° (E) 20:30:10 437.568
AIST 2 25 May 20:23:59 20:28:12 61° 301° (WNW) 20:32:26 435.215
CUTE-I 25 May 20:28:16 20:31:43 17° 268° (W) 20:34:55 437.470
M-CUBED/EXP-1 PRIME 25 May 20:31:17 20:34:05 26° 102° (ESE) 20:36:58 437.505
AUBIESAT-1 25 May 20:40:48 20:43:45 30° 103° (ESE) 20:46:45 437.475
CANX-2 25 May 20:43:25 20:46:38 22° 71° (ENE) 20:49:58 2200.000
CUTE 1.7 + AOD 2 25 May 20:47:13 20:50:26 22° 71° (ENE) 20:53:45 437.475
BEESAT 2 25 May 20:47:19 20:48:49 11° 315° (NW) 20:50:09 435.950
RS-15 25 May 20:59:08 21:09:58 43° 251° (WSW) 21:20:54 29.354- 29.394
AIST 1 25 May 20:59:32 21:02:50 23° 90° (E) 21:06:16
CINEMA 3 25 May 21:00:01 21:03:11 18° 68° (ENE) 21:06:34 145.822/145.860
Cosmos 2491 25 May 21:07:34 21:16:16 64° 280° (W) 21:25:02 435.465 / 435.565
DOVE 4 25 May 21:09:11 21:13:57 45° 73° (ENE) 21:18:58 437.250
YUBILEINY 25 May 21:10:16 21:17:57 35° 273° (W) 21:25:27 435.215
SEEDS 25 May 21:11:34 21:15:21 33° 73° (ENE) 21:19:11 437.485
HO-68 25 May 21:15:30 21:22:36 69° 73° (ENE) 21:29:46 435.675
CUBESAT XI-V 25 May 21:18:32 21:20:56 14° 292° (WNW) 21:23:05 437.345
Cosmos 2504 25 May 21:25:09 21:30:53 26° 72° (ENE) 21:36:50 435.465 / 435.565
COMPASS 1 25 May 21:27:03 21:30:58 40° 74° (ENE) 21:34:56 437.405
BRITE-PL 25 May 21:29:00 21:33:45 47° 263° (W) 21:38:53 437.365/2234.400
FUNcube-1 25 May 21:32:33 21:32:56 10° 66° (ENE) 21:33:37 145.935
GOMX 1 25 May 21:38:50 21:43:46 59° 261° (W) 21:49:03 467.674
AAUSAT CUBESAT 2 25 May 21:40:21 21:44:23 50° 75° (ENE) 21:48:26 437.432
PRISM 25 May 21:43:51 21:45:49 13° 292° (WNW) 21:47:34 437.425
CUBEBUG 2 25 May 22:00:11 22:04:31 37° 73° (ENE) 22:08:54 437.445
STRAND 1 25 May 22:00:49 22:03:55 16° 294° (WNW) 22:06:48 437.568
M-CUBED/EXP-1 PRIME 25 May 22:07:19 22:08:48 12° 295° (WNW) 22:10:08 437.505
ZACube-1 25 May 22:08:44 22:12:35 28° 72° (ENE) 22:16:32 437.345
UKube-1 25 May 22:15:29 22:17:40 14° 68° (ENE) 22:20:03 .
HUMSAT D 25 May 22:16:27 22:18:38 14° 69° (ENE) 22:21:01 437.325/437.525
AUBIESAT-1 25 May 22:17:22 22:18:20 11° 295° (WNW) 22:19:08 437.475
DELFI C3 25 May 22:17:30 22:21:17 42° 75° (ENE) 22:25:07 145.870
CANX-2 25 May 22:18:51 22:22:28 26° 265° (W) 22:26:01 2200.000
DX 1 25 May 22:21:20 22:24:12 18° 69° (ENE) 22:27:15 434.975-435.025
CUTE 1.7 + AOD 2 25 May 22:22:37 22:26:14 26° 265° (W) 22:29:48 437.475
Oscar 11 25 May 22:24:07 22:28:27 76° 77° (ENE) 22:32:47 145.826/435.025
VELOX 1 25 May 22:31:50 22:32:53 11° 66° (ENE) 22:34:12 145.980
CINEMA 3 25 May 22:35:16 22:40:01 46° 262° (W) 22:44:51 145.822/145.860
AIST 1 25 May 22:37:05 22:40:27 22° 285° (WNW) 22:43:44
DOVE 4 25 May 22:48:28 22:52:00 18° 270° (W) 22:55:24 437.250
SEEDS 25 May 22:48:32 22:51:17 16° 268° (W) 22:53:51 437.485
UWE-3 25 May 22:50:10 22:54:52 77° 259° (WSW) 22:59:34 435.000/436.395/437.385
AISAT 25 May 23:00:13 23:03:47 25° 70° (ENE) 23:07:27 437.250
FUNcube-1 25 May 23:04:11 23:08:45 70° 259° (W) 23:13:21 145.935
COMPASS 1 25 May 23:04:47 23:06:53 13° 269° (W) 23:08:46 437.405
HO-68 25 May 23:06:03 23:11:00 19° 269° (W) 23:15:33 435.675
Cosmos 2504 25 May 23:17:45 23:24:34 45° 269° (W) 23:31:18 435.465 / 435.565
AAUSAT CUBESAT 2 25 May 23:19:32 23:20:21 10° 270° (W) 23:20:52 437.432
TIGRISAT 25 May 23:28:45 23:32:16 24° 95° (E) 23:35:47 435.000
50 SAT 25 May 23:30:18 23:34:14 57° 76° (ENE) 23:38:10 437.505
CUSAT 1 25 May 23:34:48 23:36:52 12° 57° (ENE) 23:39:16 437.405
CUBEBUG 2 25 May 23:37:50 23:41:19 19° 268° (W) 23:44:40 437.445
GONETS M04 25 May 23:44:23 23:47:58 13° 61° (ENE) 23:52:15
ZACube-1 25 May 23:45:09 23:48:55 24° 266° (W) 23:52:34 437.345
UNISAT 6 25 May 23:48:05 23:52:15 42° 98° (E) 23:56:20 437.425
UKube-1 25 May 23:49:21 23:53:28 43° 261° (W) 23:57:36 .
HUMSAT D 25 May 23:49:55 23:54:03 43° 262° (W) 23:58:11 437.325/437.525
DELFI C3 25 May 23:55:06 23:56:40 12° 269° (W) 23:57:58 145.870
BUGSAT 1 25 May 23:56:13 23:58:26 14° 91° (E) 00:00:52 437.445
DX 1 25 May 23:56:17 00:00:14 33° 262° (W) 00:04:11 434.975-435.025
ESTCUBE 1 26 May 00:02:01 00:06:27 70° 76° (ENE) 00:10:56 437.505/2401.250
ISS 26 May 00:02:52 00:05:58 44° 133° (SE) 00:09:05 145.825
VELOX 1 26 May 00:04:37 00:08:58 60° 259° (W) 00:13:23 145.980
QB50P1 26 May 00:06:43 00:10:28 30° 97° (E) 00:14:14 145.935-145.965
CUBEBUG 1 26 May 00:06:47 00:11:05 68° 76° (ENE) 00:15:27 437.445
POLYITAN 1 26 May 00:07:54 00:11:42 31° 96° (E) 00:15:31 437.675
ANTELSAT 26 May 00:31:18 00:35:36 56° 285° (WNW) 00:39:47 437.575/2403.000
DANDE 26 May 00:33:48 00:40:31 32° 68° (ENE) 00:46:10 436.750
AISAT 26 May 00:36:36 00:40:18 25° 265° (W) 00:43:56 437.250
NANOSAT C BR1 26 May 00:38:10 00:42:27 73° 101° (ESE) 00:46:41 145.865
QB50P2 26 May 00:45:11 00:49:29 88° 283° (WNW) 00:53:44 145.880/145.840
PCSat 26 May 00:46:13 00:49:41 18° 106° (ESE) 00:53:24 145.827
SPROUT 26 May 00:50:51 00:55:03 55° 75° (ENE) 00:59:19 437.525
POPSAT HIP 1 26 May 00:57:50 01:02:06 63° 284° (WNW) 01:06:17 437.405
DUCHIFAT 1 26 May 01:00:54 01:05:07 59° 285° (WNW) 01:09:18 145.980
TIGRISAT 26 May 01:05:25 01:08:58 24° 289° (WNW) 01:12:21 435.000
CUSAT 1 26 May 01:14:06 01:21:19 84° 80° (E) 01:26:48 437.405
TISAT 1 26 May 01:19:16 01:23:30 88° 79° (E) 01:27:47 437.305
UNISAT 6 26 May 01:26:17 01:28:41 14° 292° (WNW) 01:30:52 437.425
VERMONT LUNAR 26 May 01:30:05 01:31:23 12° 143° (SE) 01:32:45 437.305
BUGSAT 1 26 May 01:30:07 01:34:07 39° 287° (WNW) 01:38:04 437.445
ITUPSAT 1 26 May 01:35:10 01:38:25 19° 69° (ENE) 01:41:51 437.325
GONETS M04 26 May 01:37:41 01:46:32 81° 83° (E) 01:55:16
O/OREOS (USA 219) 26 May 01:38:50 01:40:23 12° 56° (NE) 01:42:11 437.305
ISS 26 May 01:40:15 01:42:33 18° 330° (NNW) 01:44:49 145.825
QB50P1 26 May 01:43:02 01:46:09 19° 290° (WNW) 01:49:08 145.935-145.965
BEESAT 26 May 01:43:11 01:46:54 24° 70° (ENE) 01:50:45 436.000
POLYITAN 1 26 May 01:44:23 01:47:25 18° 290° (WNW) 01:50:18 437.675
SWISSCUBE 26 May 01:51:00 01:55:09 31° 71° (ENE) 01:59:22 437.505
Cosmos 2499 26 May 01:59:07 02:02:51 15° 67° (ENE) 02:07:02 435.465 / 435.565
DANDE 26 May 02:16:50 02:23:57 41° 271° (W) 02:29:33 436.750
PCSat 26 May 02:27:30 02:32:45 50° 300° (WNW) 02:38:02 145.827
SPROUT 26 May 02:30:50 02:31:34 10° 271° (W) 02:31:58 437.525
CUSAT 1 26 May 03:00:08 03:02:38 12° 281° (W) 03:04:31 437.405
VERMONT LUNAR 26 May 03:05:01 03:08:15 77° 153° (SSE) 03:11:27 437.305
Oscar 19 26 May 03:11:07 03:16:19 87° 284° (WNW) 03:21:27 437.125/150
ITUPSAT 1 26 May 03:11:40 03:16:05 37° 262° (W) 03:20:29 437.325
STARS 26 May 03:14:39 03:18:05 23° 70° (ENE) 03:21:38 437.465
O/OREOS (USA 219) 26 May 03:15:53 03:20:17 58° 253° (WSW) 03:24:40 437.305
PHONESAT 2.4 26 May 03:19:25 03:22:23 26° 147° (SSE) 03:25:22 2401.200-2431.200
BEESAT 26 May 03:20:28 03:24:39 29° 264° (W) 03:28:45 436.000
ITAMSAT 1 26 May 03:22:49 03:27:27 32° 97° (E) 03:32:09 435.822/435.867
SWISSCUBE 26 May 03:29:20 03:33:03 22° 266° (W) 03:36:40 437.505
BEESAT 2 26 May 03:29:36 03:32:06 16° 49° (NE) 03:34:43 435.950
GONETS M04 26 May 03:37:03 03:42:28 17° 278° (W) 03:47:16
KKS-1 26 May 03:42:43 03:47:12 82° 76° (ENE) 03:51:42 437.445
Cosmos 2499 26 May 03:49:49 03:56:51 74° 265° (W) 04:04:01 435.465 / 435.565
Gurwin Techsat 1B 26 May 03:53:11 03:58:28 63° 101° (E) 04:03:44 435.225
SO-50 26 May 04:11:00 04:15:38 82° 117° (ESE) 04:20:27 436.795
BEESAT 3 26 May 04:19:09 04:23:13 66° 59° (ENE) 04:27:11 437.485
JAS-2 26 May 04:27:00 04:30:41 20° 94° (E) 04:34:40 435.910
HORYU 2 26 May 04:30:37 04:33:59 22° 95° (E) 04:37:25 437.375
VERMONT LUNAR 26 May 04:42:40 04:45:37 32° 351° (N) 04:48:33 437.305
AIST 2 26 May 04:49:09 04:52:53 30° 54° (NE) 04:56:35 435.215
STARS 26 May 04:50:36 04:54:25 27° 264° (W) 04:58:11 437.465
PHONESAT 2.4 26 May 04:56:54 05:00:21 61° 341° (NNW) 05:03:48 2401.200-2431.200
ITAMSAT 1 26 May 05:02:31 05:06:51 26° 291° (WNW) 05:11:04 435.822/435.867
MOZHAYETS 4 26 May 05:03:42 05:08:01 43° 74° (ENE) 05:12:22
BEESAT 2 26 May 05:06:33 05:10:25 41° 245° (WSW) 05:14:12 435.950
AO-7 26 May 05:16:07 05:24:13 52° 101° (ESE) 05:32:19 29.400- 29.500
Gurwin Techsat 1B 26 May 05:35:02 05:37:59 15° 295° (WNW) 05:40:39 435.225
SO-50 26 May 05:54:45 05:56:54 12° 317° (NW) 05:58:52 436.795
HORYU 2 26 May 06:06:49 06:10:38 28° 289° (WNW) 06:14:21 437.375
JAS-2 26 May 06:11:16 06:16:02 38° 288° (WNW) 06:20:54 435.910
VERMONT LUNAR 26 May 06:20:22 06:23:16 31° 8° (N) 06:26:10 437.305
AIST 2 26 May 06:28:09 06:31:16 20° 249° (WSW) 06:34:15 435.215
ISS 26 May 06:33:44 06:35:45 15° 29° (NNE) 06:37:51 145.825
PHONESAT 2.4 26 May 06:35:42 06:38:49 31° 357° (N) 06:41:57 2401.200-2431.200
CUBESAT XI-V 26 May 06:39:36 06:43:44 35° 72° (ENE) 06:47:56 437.345
MOZHAYETS 4 26 May 06:42:49 06:45:29 15° 269° (W) 06:47:57
PRISM 26 May 06:54:22 06:57:23 21° 70° (ENE) 07:00:31 437.425
CUTE-I 26 May 07:07:07 07:11:32 27° 95° (E) 07:16:04 437.470
AO-7 26 May 07:09:30 07:16:42 33° 297° (WNW) 07:23:44 29.400- 29.500
M-CUBED/EXP-1 PRIME 26 May 07:16:10 07:19:46 27° 69° (ENE) 07:23:13 437.505
Cosmos 2491 26 May 07:22:08 07:30:46 57° 79° (ENE) 07:39:23 435.465 / 435.565
AUBIESAT-1 26 May 07:25:13 07:28:54 29° 69° (ENE) 07:32:24 437.475
Cubesat XI-IV 26 May 07:26:55 07:31:59 42° 98° (E) 07:37:05 437.490
STRAND 1 26 May 07:32:39 07:37:36 56° 74° (ENE) 07:42:36 437.568
VERMONT LUNAR 26 May 07:57:29 08:00:40 87° 210° (SSW) 08:03:52 437.305
ISS 26 May 08:09:14 08:12:26 57° 226° (SW) 08:15:39 145.825
YUBILEINY 26 May 08:09:22 08:17:49 56° 91° (E) 08:26:19 435.215
PHONESAT 2.4 26 May 08:14:02 08:17:22 44° 14° (NNE) 08:20:42 2401.200-2431.200
CUBESAT XI-V 26 May 08:18:03 08:21:19 18° 268° (W) 08:24:26 437.345
PRISM 26 May 08:29:20 08:32:44 24° 264° (W) 08:36:04 437.425
AIST 1 26 May 08:46:23 08:50:44 62° 82° (E) 08:55:05
CUTE-I 26 May 08:46:51 08:51:39 33° 290° (WNW) 08:56:21 437.470
HO-68 26 May 08:49:40 08:52:52 14° 89° (E) 08:56:35 435.675
M-CUBED/EXP-1 PRIME 26 May 08:51:11 08:54:35 21° 259° (W) 08:57:42 437.505
AUBIESAT-1 26 May 09:00:32 09:03:41 19° 260° (W) 09:06:33 437.475
RS-15 26 May 09:06:19 09:16:15 45° 110° (ESE) 09:26:30 29.354- 29.394
Cubesat XI-IV 26 May 09:07:47 09:11:50 21° 292° (WNW) 09:15:43 437.490
DOVE 4 26 May 09:13:27 09:16:29 17° 90° (E) 09:19:39 437.250
STRAND 1 26 May 09:14:31 09:17:14 14° 269° (W) 09:19:40 437.568
Cosmos 2491 26 May 09:20:02 09:27:10 27° 275° (W) 09:33:56 435.465 / 435.565
VERMONT LUNAR 26 May 09:35:50 09:37:34 14° 216° (SW) 09:39:12 437.305
BRITE-PL 26 May 09:37:02 09:42:43 79° 101° (E) 09:48:06 437.365/2234.400
GOMX 1 26 May 09:44:27 09:49:45 58° 99° (E) 09:54:43 467.674
PHONESAT 2.4 26 May 09:52:11 09:55:30 43° 210° (SSW) 09:58:47 2401.200-2431.200
Cosmos 2504 26 May 09:59:09 10:05:42 27° 87° (E) 10:12:12 435.465 / 435.565
CANX-2 26 May 10:06:40 10:10:52 67° 100° (E) 10:15:02 2200.000
YUBILEINY 26 May 10:07:50 10:15:10 28° 290° (WNW) 10:22:12 435.215
CUTE 1.7 + AOD 2 26 May 10:10:22 10:14:33 66° 101° (E) 10:18:43 437.475
Oscar 11 26 May 10:15:57 10:18:44 17° 93° (E) 10:21:41 145.826/435.025
TIGRISAT 26 May 10:24:52 10:27:45 17° 69° (ENE) 10:30:48 435.000
CINEMA 3 26 May 10:33:57 10:38:36 57° 100° (E) 10:43:00 145.822/145.860
HO-68 26 May 10:34:21 10:41:32 85° 286° (WNW) 10:48:41 435.675
SEEDS 26 May 10:34:22 10:38:33 76° 283° (WNW) 10:42:42 437.485
UNISAT 6 26 May 10:43:46 10:47:41 28° 71° (ENE) 10:51:41 437.425
UWE-3 26 May 10:44:25 10:48:05 26° 95° (E) 10:51:42 435.000/436.395/437.385
COMPASS 1 26 May 10:49:03 10:53:10 63° 284° (WNW) 10:57:15 437.405
DOVE 4 26 May 10:49:42 10:54:36 45° 287° (WNW) 10:59:10 437.250
FUNcube-1 26 May 10:56:44 11:00:23 27° 95° (E) 11:04:02 145.935
QB50P1 26 May 10:57:21 10:59:49 16° 69° (ENE) 11:02:29 145.935-145.965
POLYITAN 1 26 May 10:58:40 11:01:20 17° 69° (ENE) 11:04:09 437.675
AAUSAT CUBESAT 2 26 May 11:02:00 11:06:01 51° 285° (WNW) 11:10:01 437.432
BRITE-PL 26 May 11:17:59 11:20:31 13° 296° (WNW) 11:22:42 437.365/2234.400
RS-15 26 May 11:18:09 11:28:35 48° 310° (NW) 11:39:12 29.354- 29.394
PCSat 26 May 11:18:32 11:23:55 63° 61° (ENE) 11:29:17 145.827
GOMX 1 26 May 11:24:08 11:27:19 16° 294° (WNW) 11:30:11 467.674
ANTELSAT 26 May 11:26:12 11:30:54 83° 77° (ENE) 11:35:36 437.575/2403.000
NANOSAT C BR1 26 May 11:27:30 11:31:20 34° 73° (ENE) 11:35:15 145.865
CUBEBUG 2 26 May 11:31:13 11:35:38 64° 284° (WNW) 11:39:53 437.445
QB50P2 26 May 11:34:40 11:38:43 44° 74° (ENE) 11:42:50 145.880/145.840
DELFI C3 26 May 11:34:44 11:38:43 68° 284° (WNW) 11:42:42 145.870
ZACube-1 26 May 11:36:25 11:40:46 89° 98° (E) 11:44:59 437.345
HUMSAT D 26 May 11:37:29 11:41:19 36° 97° (E) 11:45:08 437.325/437.525
UKube-1 26 May 11:40:06 11:44:09 38° 98° (E) 11:48:12 .
POPSAT HIP 1 26 May 11:46:58 11:51:10 60° 76° (ENE) 11:55:26 437.405
DX 1 26 May 11:47:28 11:51:45 51° 100° (E) 11:56:03 434.975-435.025
DUCHIFAT 1 26 May 11:49:35 11:53:47 63° 76° (ENE) 11:58:01 145.980
Cosmos 2504 26 May 11:50:33 11:58:47 53° 281° (W) 12:06:28 435.465 / 435.565
Oscar 11 26 May 11:51:10 11:55:02 32° 287° (WNW) 11:58:50 145.826/435.025
VELOX 1 26 May 11:58:41 12:02:41 32° 97° (E) 12:06:43 145.980
ESTCUBE 1 26 May 11:58:59 12:02:09 19° 93° (E) 12:05:27 437.505/2401.250
TIGRISAT 26 May 11:59:43 12:04:11 42° 262° (W) 12:08:38 435.000
CUBEBUG 1 26 May 12:00:11 12:02:56 17° 92° (E) 12:05:52 437.445
JUGNU 26 May 12:02:38 12:06:09 16° 172° (S) 12:09:41 437.505
CINEMA 3 26 May 12:13:13 12:15:16 12° 294° (WNW) 12:17:03 145.822/145.860
BUGSAT 1 26 May 12:16:18 12:20:26 90° 312° (NW) 12:24:38 437.445
UNISAT 6 26 May 12:20:32 12:24:26 25° 265° (W) 12:28:14 437.425
UWE-3 26 May 12:21:06 12:24:30 22° 290° (WNW) 12:27:43 435.000/436.395/437.385
HO-68 26 May 12:24:47 12:28:23 14° 301° (WNW) 12:31:32 435.675
AISAT 26 May 12:29:40 12:34:11 80° 102° (ESE) 12:38:39 437.250
QB50P1 26 May 12:31:25 12:35:25 37° 262° (W) 12:39:24 145.935-145.965
POLYITAN 1 26 May 12:33:00 12:36:59 35° 263° (W) 12:40:57 437.675
FUNcube-1 26 May 12:33:21 12:36:35 20° 290° (WNW) 12:39:39 145.935
CUSAT 1 26 May 12:34:16 12:38:37 18° 82° (E) 12:43:48 437.405
GONETS M04 26 May 12:41:41 12:46:42 18° 82° (E) 12:52:19
SPROUT 26 May 12:42:52 12:44:36 12° 91° (E) 12:46:36 437.525
50 SAT 26 May 12:44:38 12:48:25 53° 285° (WNW) 12:52:09 437.505
SO-50 26 May 12:45:58 12:50:22 31° 53° (NE) 12:54:45 436.795
Oscar 19 26 May 12:50:26 12:50:54 10° 64° (ENE) 12:51:44 437.125/150
